Regional Weather Roundup
Issued by NWS Cleveland, OH

Home | Current Version | Previous Version | Text Only | Print | Product List | Glossary Off
Versions: 1 2 3 4 5 6 7 8 9 10 11 12 13 14 15 16 17 18 19 20 21 22 23 24 25 26 27 28 29 30 31 32 33 34 35 36 37 38 39 40 41 42 43 44 45 46 47 48 49 50

000
ASUS41 KCLE 210910
RWRCLE
OHIO REGIONAL WEATHER ROUNDUP
NATIONAL WEATHER SERVICE WILMINGTON, OH
400 AM EST TUE NOV 21 2017

NOTE: "FAIR" INDICATES FEW OR NO CLOUDS BELOW 12,000 FEET WITH NO
SIGNIFICANT WEATHER AND/OR OBSTRUCTIONS TO VISIBILITY.

OHZ001>008-015>018-024>027-034-035-043-044-211000-
   NORTHWEST OHIO

CITY           SKY/WX    TMP DP  RH WIND       PRES   REMARKS
DEFIANCE       FAIR      39  25  57 SW13      29.80F
FINDLAY        FAIR      42  23  46 SW23G32   29.82F
TOLEDO EXPRESS FAIR      40  26  57 SW13G22   29.79F
TOLEDO EXEC    FAIR      40  25  55 SW16      29.81F
LIMA           FAIR      39  25  57 S16G25    29.84F
$$

OHZ009>014-019>023-028>033-038-089-211000-
   NORTHEAST OHIO

CITY           SKY/WX    TMP DP  RH WIND       PRES   REMARKS
CLE-HOPKINS    FAIR      40  23  50 S14       29.88F
CLE-LAKEFRONT  FAIR      43  21  41 S24G31    29.84F
CUY CO. ARPT   NOT AVBL
LORAIN-ELYRIA  FAIR      41  18  39 SW13      29.86F
ASHTABULA      FAIR      37  23  56 S14G22    29.88F
AKRON-CANTON   FAIR      39  21  48 S16G22    29.90F
WOOSTER        FAIR      35  23  61 SW9       29.90F WCI  28
MANSFIELD      FAIR      42  20  41 S24G32    29.88F
YOUNGSTOWN     FAIR      37  22  54 S9        29.90F
$$

OHZ042-051>053-060>062-070>072-077>081-211000-
  SOUTHWEST OHIO

CITY           SKY/WX    TMP DP  RH WIND       PRES   REMARKS
CINC-COVINGTON FAIR      37  25  61 SW8       29.96S
CINC-LUNKEN    FAIR      27  25  92 CALM      30.00S
HAMILTON       FAIR      28  25  88 CALM      29.98R
DAYTON         FAIR      37  25  61 S14       29.92F
WRIGHT-PAT AFB CLEAR     37  23  57 S12       29.93F
DAYTON GENERAL FAIR      34  24  67 S10       29.94S WCI  26
WILMINGTON     FAIR      36  26  67 SW10      29.95F
$$

OHZ036-037-039>041-045>050-054>059-063>069-073>076-082>088-211000-
  CENTRAL AND SOUTHEAST OHIO

CITY           SKY/WX    TMP DP  RH WIND       PRES   REMARKS
COLUMBUS       FAIR      38  24  57 S8        29.95S
OSU AIRPORT    FAIR      34  25  69 S8        29.94S WCI  27
BOLTON FIELD   FAIR      34  25  70 S8        29.95F WCI  27
RICKENBACK AFB FAIR      34  24  65 S12       29.96S WCI  26
NEWARK         FAIR      30  22  72 CALM      29.95S
MARION         FAIR      36  25  64 S16       29.89F
LANCASTER      FAIR      35  23  61 SE7       29.97S WCI  29
ZANESVILLE     FAIR      36  22  56 S7        29.97S
NEW PHILLY     FAIR      40  22  48 S6        29.95F
$$




USA.gov is the U.S. government's official web portal to all federal, state and local government web resources and services.